| time (UTC) | temp F | wind direction | speed knots | gust knots | rain 1hr in | rain 24hr in | rain mn in | humidity % | barometer mb |
| 20260904222515 | 79 | 0 | 4.3 | 0.0 | 0.24 | 0.28 | 0.24 | 45 | |
| 20260904221515 | 79 | 0 | 1.7 | 0.0 | 0.24 | 0.28 | 0.24 | 46 | |
| 20260904220515 | 79 | 0 | 2.6 | 0.0 | 0.00 | 0.04 | 0.00 | 47 | |
| 20260904043945 | 61 | 0 | 0.0 | 0.0 | 0.04 | 0.04 | 0.04 | 99 | |
| 20260904042945 | 61 | 0 | 0.0 | 0.0 | 0.03 | 0.03 | 0.03 | 99 | |
| 20260904041915 | 61 | 0 | 0.0 | 0.0 | 0.02 | 0.02 | 0.02 | 97 | |
| 20260904040915 | 61 | 0 | 0.9 | 0.0 | 0.01 | 0.01 | 0.01 | 97 | |
| 20260904035845 | 61 | 0 | 0.0 | 0.0 | 0.01 | 0.01 | 0.01 | 97 | |
| 20260904034845 | 61 | 0 | 0.0 | 0.0 | 0.00 | 0.00 | 0.00 | 96 | |
| 20260904033815 | 62 | 0 | 0.0 | 0.0 | 0.00 | 0.00 | 0.00 | 95 | |
| 20260904032745 | 62 | 0 | 0.0 | 0.0 | 0.00 | 0.00 | 0.00 | 93 | |
| 20260904031715 | 62 | 0 | 0.0 | 0.0 | 0.00 | 0.00 | 0.00 | 93 | |
| 20260904030715 | 63 | 0 | 0.9 | 0.0 | 0.00 | 0.00 | 0.00 | 91 | |
| 20260904025715 | 63 | 0 | 1.7 | 0.0 | 0.00 | 0.00 | 0.00 | 88 | |
| 20260904024715 | 64 | 0 | 2.6 | 0.0 | 0.00 | 0.00 | 0.00 | 87 | |
| 20260904023645 | 64 | 0 | 2.6 | 0.0 | 0.00 | 0.00 | 0.00 | 86 | |
| 20260904022615 | 64 | 0 | 1.7 | 0.0 | 0.00 | 0.00 | 0.00 | 85 | |
| 20260904021615 | 65 | 0 | 2.6 | 0.0 | 0.00 | 0.00 | 0.00 | 84 | |
| 20260904020545 | 65 | 0 | 0.9 | 0.0 | 0.00 | 0.00 | 0.00 | 82 | |
| 20260904015545 | 66 | 0 | 3.5 | 0.0 | 0.00 | 0.00 | 0.00 | 80 | |
| 20260904014545 | 66 | 0 | 0.9 | 0.0 | 0.00 | 0.00 | 0.00 | 79 | |
| 20260904013515 | 67 | 0 | 1.7 | 0.0 | 0.00 | 0.00 | 0.00 | 78 | |
| 20260904012515 | 67 | 0 | 2.6 | 0.0 | 0.00 | 0.00 | 0.00 | 77 | |
| 20260904011445 | 67 | 0 | 5.2 | 0.0 | 0.00 | 0.00 | 0.00 | 76 | |
| 20260904010445 | 68 | 0 | 3.5 | 0.0 | 0.00 | 0.00 | 0.00 | 75 | |
| 20260904005445 | 68 | 0 | 1.7 | 0.0 | 0.00 | 0.00 | 0.00 | 75 | |
| 20260904004415 | 68 | 0 | 1.7 | 0.0 | 0.00 | 0.00 | 0.00 | 75 | |
| 20260904003345 | 68 | 0 | 3.5 | 0.0 | 0.00 | 0.00 | 0.00 | 74 | |
| 20260904002345 | 68 | 0 | 2.6 | 0.0 | 0.00 | 0.00 | 0.00 | 74 | |
| 20260904001315 | 68 | 0 | 3.5 | 0.0 | 0.00 | 0.00 | 0.00 | 74 |